Location: *
(46.3500°N, 10.9000°E)
Time: 00:40:05
(UTC+00:00)

Vanguard 2 - Pass Details

Date: 27 April 2021
Orbit: 552 x 2938 km, 32.9° (Epoch: 12 May)

Event Time Altitude Azimuth Distance (km) Brightness Sun altitude
Rises 12:07:49 0° 258° (WSW) 6,790 12.6 55.7°
Reaches altitude 10° 12:12:43 10° 254° (WSW) 5,714 12.4 55.4°
Maximum altitude 12:28:22 46° 189° (S) 2,985 12.4 54.1°
Drops below altitude 10° 12:39:25 10° 121° (ESE) 4,110 11.3 53.0°
Sets 12:42:19 0° 115° (ESE) 4,810 11.5 52.7°
